This demonstration page uses our WeatherBlox Daily Observations layout. Learn more.

Hourly Observations for August 21, 2016

Temp ( °F °C ) Dew Point ( °F °C ) Humidity (%) Winds ( mph kmh ) Pressure ( in mb ) Visibility ( mi km ) Precip ( " mm )
12:15 am 00:15 Clear 54 12 50 10.1 88 88 Calm 30.06 1018 10 16.09344 0 0
12:35 am 00:35 Clear 53 11.7 49 9.7 88 88 Calm 30.06 1018 10 16.09344 0 0
12:55 am 00:55 Clear 53 11.6 50 10.1 91 91 Calm 30.06 1018 10 16.09344 0 0
1:15 am 01:15 Clear 52 11.1 49 9.6 91 91 Calm 30.06 1018 10 16.09344 0 0
1:35 am 01:35 Clear 52 11.1 49 9.6 91 91 Calm 30.06 1018 10 16.09344 0 0
1:55 am 01:55 Clear 53 11.7 49 9.5 87 87 Calm 30.06 1018 10 16.09344 0 0
2:15 am 02:15 Clear 51 10.8 49 9.2 90 90 Calm 30.06 1018 10 16.09344 0 0
2:35 am 02:35 Clear 51 10.7 48 9.1 90 90 Calm 30.06 1018 10 16.09344 0 0
2:55 am 02:55 Clear 51 10.5 48 9 91 91 Calm 30.06 1018 10 16.09344 0 0
3:15 am 03:15 Clear 53 11.4 48 8.9 85 85 SW 3 6 30.06 1018 10 16.09344 0 0
3:35 am 03:35 Clear 53 11.6 47 8.6 82 82 Calm 30.06 1018 10 16.09344 0 0
3:55 am 03:55 Clear 52 11.2 47 8.5 84 84 Calm 30.06 1018 10 16.09344 0 0
4:15 am 04:15 Clear 51 10.8 47 8.5 86 86 SW 3 6 30.06 1018 10 16.09344 0 0
4:35 am 04:35 Clear 53 11.6 47 8.3 80 80 Calm 30.06 1018 10 16.09344 0 0
4:55 am 04:55 Clear 53 11.4 47 8.4 82 82 SW 3 6 30.06 1018 10 16.09344 0 0
5:15 am 05:15 Clear 50 10.1 46 8 87 87 Calm 30.06 1018 10 16.09344 0 0
5:35 am 05:35 Clear 50 10 47 8.1 88 88 Calm 30.06 1018 10 16.09344 0 0
5:55 am 05:55 Clear 49 9.2 46 8 92 92 Calm 30.09 1019 10 16.09344 0 0
6:15 am 06:15 Clear 48 8.7 45 7.3 91 91 Calm 30.09 1019 10 16.09344 0 0
6:35 am 06:35 Clear 48 9 46 8 94 94 Calm 30.12 1020 10 16.09344 0 0
6:55 am 06:55 Sunny 49 9.3 46 7.6 89 89 SW 5 7 30.12 1020 10 16.09344 0 0
7:15 am 07:15 Sunny 51 10.3 46 8 86 86 Calm 30.09 1019 10 16.09344 0 0
7:35 am 07:35 Sunny 52 11.3 47 8.3 82 82 Calm 30.09 1019 10 16.09344 0 0
7:55 am 07:55 Sunny 55 12.7 49 9.3 80 80 Calm 30.09 1019 10 16.09344 0 0
8:15 am 08:15 Sunny 58 14.3 50 10 76 76 SW 5 7 30.06 1018 10 16.09344 0 0
8:35 am 08:35 Sunny 60 15.6 50 9.8 69 69 SSW 3 6 30.06 1018 10 16.09344 0 0
8:55 am 08:55 Sunny 63 17 50 10.2 64 64 SSW 5 7 30.03 1017 10 16.09344 0 0
9:15 am 09:15 Sunny 64 18 51 10.3 61 61 SSW 7 11 30.03 1017 10 16.09344 0 0
9:35 am 09:35 Sunny 67 19.4 50 10.1 55 55 SW 7 11 30.03 1017 10 16.09344 0 0
9:55 am 09:55 Sunny 68 20.2 48 9 49 49 SW 7 11 30.03 1017 10 16.09344 0 0
10:15 am 10:15 Sunny 70 20.9 48 9 47 47 SW 8 13 30 1016 10 16.09344 0 0
10:35 am 10:35 Sunny 71 21.9 47 8.6 43 43 SSW 7 11 30 1016 10 16.09344 0 0
10:55 am 10:55 Sunny 73 22.6 47 8.5 41 41 SW 8 13 30 1016 10 16.09344 0 0
11:15 am 11:15 Sunny 74 23.2 47 8.5 39 39 SW 9 15 30 1016 10 16.09344 0 0
11:35 am 11:35 Sunny 74 23.4 49 9.3 41 41 S 8 13 30 1016 10 16.09344 0 0
11:55 am 11:55 Sunny 75 23.8 48 9.1 39 39 S 7 11 30 1016 10 16.09344 0 0
12:15 pm 12:15 Sunny 76 24.7 50 10.1 40 40 S 7 11 29.97 1015 10 16.09344 0 0
12:35 pm 12:35 Sunny 78 25.3 50 9.8 38 38 S 12 19 29.97 1015 10 16.09344 0 0
12:55 pm 12:55 Sunny 78 25.3 49 9.4 37 37 S 10 17 29.94 1014 10 16.09344 0 0
1:15 pm 13:15 Sunny 78 25.5 47 8.6 34 34 S 13 20 29.94 1014 10 16.09344 0 0
1:35 pm 13:35 Sunny 80 26.5 47 8.2 31 31 SSW 13 20 29.94 1014 10 16.09344 0 0
1:55 pm 13:55 Sunny 80 26.7 48 8.8 32 32 S 12 19 29.94 1014 10 16.09344 0 0
2:15 pm 14:15 Sunny 81 27 47 8.6 31 31 SSE 15 24 29.94 1014 10 16.09344 0 0
2:35 pm 14:35 Sunny 81 27.3 47 8.5 31 31 S 13 20 29.88 1012 10 16.09344 0 0
2:55 pm 14:55 Sunny 82 27.5 46 8 29 29 SSE 13 20 29.88 1012 10 16.09344 0 0
3:15 pm 15:15 Sunny 82 27.7 47 8.4 30 30 SSE 12 19 29.88 1012 10 16.09344 0 0
3:35 pm 15:35 Sunny 82 27.8 47 8.3 29 29 S 13 20 29.88 1012 10 16.09344 0 0
3:55 pm 15:55 Sunny 82 27.9 47 8.6 30 30 S 15 24 29.85 1011 10 16.09344 0 0
4:15 pm 16:15 Sunny 83 28.1 47 8.5 29 29 SSE 16 26 29.85 1011 10 16.09344 0 0
4:35 pm 16:35 Sunny 82 27.8 47 8.2 29 29 SSE 15 24 29.85 1011 10 16.09344 0 0
4:55 pm 16:55 Sunny 82 28 47 8.3 29 29 S 16 26 29.85 1011 10 16.09344 0 0
5:15 pm 17:15 Sunny 83 28.1 47 8.5 29 29 S 13 20 29.85 1011 10 16.09344 0 0
5:35 pm 17:35 Sunny 83 28.1 47 8.3 29 29 S 14 22 29.85 1011 10 16.09344 0 0
5:55 pm 17:55 Sunny 82 28 49 9.2 31 31 SSE 12 19 29.83 1010 10 16.09344 0 0
6:15 pm 18:15 Sunny 82 27.8 49 9.2 31 31 SSE 14 22 29.83 1010 10 16.09344 0 0
6:35 pm 18:35 Sunny 81 27.4 48 8.8 31 31 SSE 14 22 29.83 1010 10 16.09344 0 0
6:55 pm 18:55 Sunny 80 26.9 49 9.5 34 34 SSE 12 19 29.83 1010 10 16.09344 0 0
7:15 pm 19:15 Sunny 79 25.9 49 9.5 36 36 SSE 13 20 29.85 1011 10 16.09344 0 0
7:35 pm 19:35 Sunny 77 25.1 50 10.1 39 39 SSE 13 20 29.85 1011 10 16.09344 0 0
7:55 pm 19:55 Sunny 75 24.1 50 10.2 42 42 SSE 12 19 29.85 1011 10 16.09344 0 0
8:15 pm 20:15 Sunny 73 22.8 51 10.7 46 46 SSE 10 17 29.85 1011 10 16.09344 0 0
8:35 pm 20:35 Clear 71 21.9 51 10.5 48 48 SE 10 17 29.88 1012 10 16.09344 0 0
8:55 pm 20:55 Clear 70 21.2 51 10.6 51 51 SSE 9 15 29.88 1012 10 16.09344 0 0
9:15 pm 21:15 Clear 69 20.8 51 10.7 53 53 SE 10 17 29.88 1012 10 16.09344 0 0
9:35 pm 21:35 Clear 69 20.6 51 10.8 54 54 SSE 12 19 29.88 1012 10 16.09344 0 0
9:55 pm 21:55 Clear 68 20 52 11.2 57 57 SSE 10 17 29.91 1013 10 16.09344 0 0
10:15 pm 22:15 Clear 67 19.5 52 11.3 59 59 SSE 12 19 29.91 1013 10 16.09344 0 0
10:35 pm 22:35 Clear 67 19.5 53 11.4 60 60 SSE 10 17 29.91 1013 10 16.09344 0 0
10:55 pm 22:55 Clear 67 19.5 53 11.5 60 60 SSE 12 19 29.91 1013 10 16.09344 0 0
11:15 pm 23:15 Clear 67 19.7 53 11.5 59 59 SSE 13 20 29.91 1013 10 16.09344 0 0
11:35 pm 23:35 Clear 68 20 52 11.2 57 57 SSE 13 20 29.91 1013 10 16.09344 0 0
11:55 pm 23:55 Clear 68 20 52 11 56 56 SSE 13 20 29.91 1013 10 16.09344 0 0

Powered by AerisWeather